DECAYED

OBJECT C, 49005 (Decayed)

Orbit data source: Space-Track

You're viewing an Uncataloged Satellite

Recently launched and/or uncataloged satellites may have evolving metadata. Metadata may include but not limited to: Owner, Maufacturer, Bus, Motor, and Mission.

OBJECT C, 49005 was a satellite owned by Changguang WJ (CN) in LEO that was launched on Sat, 03 Jul 2021 UTC via a CHANG ZHENG 2D launch vehicle from the Taiyaun Space Center, China (TSC). Unknown objects in Earth's orbit typically refer to objects detected orbiting the Earth but have not yet been identified or cataloged. These objects could be anything from previously untracked satellites, spent rocket stages, debris from satellite collisions, or even natural meteoroids temporarily captured by Earth's gravity. This object's orbit decayed before it could be identified.

Not visible in the next 10 days
Identifier
49005, 2021-061C
Orbit
Decayed
Country
Flag of CNCN / PRC
Related business
Manufacturer
Changguang WJ
Mission
Decayed Commercial Imaging
Bus & Motor
JL-1, Unknown motor
Mass
42 kg wet, 42 kg dry
Launch date (UTC)
2021-07-03 (5 years ago)
Launch vehicle
CHANG ZHENG 2D
Launch site
Taiyaun Space Center, China (TSC)
Object type
Unknown
Shape & HBR
Box + 2 Pan, 0.8 m
Radar Cross Section
2.000 m², Medium (>0.1 m² and < 1m²)

Expand to show TLE details & history
Last TLE update: 4 months ago

TLE from 4 months ago
0 OBJECT C
1 49005U 21061C   26066.85852353  .05857935  24365-5  95021-3 0  9994
2 49005  97.2829 147.8710 0008573 269.7304  90.3010 16.33542222260527
Epoch: 2026-03-07T20:36Z
TLE epoch observation values (Epoch: 2026-03-07T20:36:16.432Z)
Latitude
-0.00005°
Longitude
33.2284°
Altitude
186.318 km
Speed
7.794 km/s
True Right ascension
09h 51m 29s
True Declination
0° 00' 00"
Sunlit
Object was in full shadow at epoch
Visualization orbit readout
Latitude
Unknown
Longitude
Unknown
Altitude
Unknown
Speed
Unknown
Apparent Right ascension
Unknown
Apparent Declination
Unknown
Sunlit
N/A
Visualization observer readout
Local Sidereal Time
21:23:46
Azimuth
Unknown
Elevation
Unknown
Doppler factor
Unknown
Orbital elements
Apogee altitude
185.471 km
Perigee altitude
174.226 km
Semi-major axis
6,557.985 km
Eccentricity
0.00086
Inclination
97.2829°
RAAN
147.871°
Arg. of periapsis
269.7304°
True anomaly
90.39924°
Mean anomaly
90.301°
Eccentric anomaly
90.35012°
Mean motion
4.08684 °/min
Orbital period
88.09 mins
BSTAR
0.00095021
Loading maneuver chart data...
Computing Atmospheric mass density...
Loading historical data...
Loading historical data...
Loading historical data...
Loading historical data...
Loading historical data...
Loading historical data...
Loading historical data...
Other satellites on launch #61 in the year 2021 (2021-07-03 UTC)

Documentation

Showing up to 5 results
|